This is the latest recevied weather packets stored in our database for station/object DL7KST-13. If no packets are shown the sender has not sent any weather packets the latest 1 day(s).
| Time | Temp. | Humidity | Pressure | Rain* | Wind** | Luminosity | Snow |
|---|---|---|---|---|---|---|---|
| 1778022365 | 11.67° C | 91% | 997.9 hPa | 0 mm | 0.89 m/s, 51° | - | - |
| 1778021167 | 11.67° C | 90% | 998 hPa | 0 mm | 1.34 m/s, 40° | - | - |
| 1778021159 | 11.67° C | 90% | 998 hPa | 0 mm | 1.34 m/s, 40° | - | - |
| 1778019954 | 11.67° C | 90% | 998.4 hPa | 0 mm | 1.79 m/s, 30° | - | - |
| 1778018749 | 11.67° C | 90% | 998.3 hPa | 0 mm | 1.34 m/s, 73° | - | - |
| 1778017544 | 11.67° C | 90% | 998 hPa | 0 mm | 1.79 m/s, 29° | - | - |
| 1778016339 | 11.67° C | 90% | 998.4 hPa | 0 mm | 0.45 m/s, 47° | - | - |
| 1778015134 | 11.67° C | 89% | 998.5 hPa | 0 mm | 0.89 m/s, 45° | - | - |
| 1778013929 | 11.67° C | 89% | 998.6 hPa | 0 mm | 0.45 m/s, 83° | - | - |
| 1778012724 | 11.67° C | 89% | 998.5 hPa | 0 mm | 1.34 m/s, 50° | - | - |
| 1778011519 | 12.22° C | 88% | 998.4 hPa | 0 mm | 0 m/s | - | - |
| 1778010314 | 12.22° C | 88% | 998.3 hPa | 0 mm | 0.89 m/s, 68° | - | - |
| 1778009109 | 12.78° C | 88% | 998.5 hPa | 0 mm | 1.34 m/s, 74° | - | - |
| 1778007904 | 12.78° C | 87% | 998.3 hPa | 0 mm | 0 m/s | - | - |
| 1778006699 | 12.78° C | 85% | 998.3 hPa | 0 mm | 0.45 m/s, 43° | - | - |
| 1778005493 | 13.89° C | 83% | 998.2 hPa | 0 mm | 0.89 m/s, 52° | - | - |
| 1778004289 | 14.44° C | 80% | 998.3 hPa | 0 mm | 1.34 m/s, 51° | - | - |
| 1778001878 | 15.56° C | 76% | 998.3 hPa | 0 mm | 0.45 m/s, 122° | - | - |
| 1778000674 | 15.56° C | 75% | 998.2 hPa | 0 mm | 0.45 m/s, 56° | - | - |
| 1777999469 | 16.11° C | 74% | 998.2 hPa | 0 mm | 0.89 m/s, 48° | - | - |
| 1777998264 | 16.67° C | 73% | 998.2 hPa | 0 mm | 0.45 m/s, 35° | - | - |
| 1777997059 | 16.67° C | 71% | 998.3 hPa | 0 mm | 0 m/s | - | - |
| 1777995854 | 16.67° C | 71% | 998.6 hPa | 0 mm | 1.34 m/s, 31° | - | - |
| 1777994648 | 17.22° C | 71% | 998.6 hPa | 0 mm | 0.45 m/s, 57° | - | - |
| 1777993443 | 17.22° C | 70% | 998.7 hPa | 0 mm | 0.45 m/s, 93° | - | - |
* Rain latest hour (hover to see other rain measurements)
** Current wind speed in m/s (hover to see current wind gust speed)